全球星 M036星 (GLOBALSTAR M036)

导读

GLOBALSTAR M036,又称全球星36号,是美国全球星(Globalstar)低轨通信星座的成员卫星,由阿莱尼亚宇航公司与劳拉空间系统公司联合研制。它于1999年2月9日从拜科努尔航天发射场发射升空,质量约450千克,运行在倾角52°、高度约1410km的近地轨道,设计工作寿命7.5年,主要承担全球语音与数据通信服务,尤其为偏远、海洋区域提供通信支撑。

Basic Information
目录编号:
25623
目录名称:
GLOBALSTAR M036
国际标识:
1999-004C
轨道中心:
EARTH
卫星名称:
全球星 M036星
卫星全名:
全球星 M036星 (GLOBALSTAR M036)
卫星状态:
在轨 (已飞行10031 天)
发射日期:
1999-02-09 UTC
国别 :
(GLOB)
星等 :
--
Orbit Information
数据来源 国际轨道数据 AOE轨道数据
星历时间 2026-07-28T03:54:56+0800
18小时前
查看轨道信息
2026-07-25T04:00:00+0800
3天前
查看轨道信息
半长轴 8119.44km 8119.436km
偏心率 0.001122 0.0010807
轨道倾角 51.995° 51.996°
近地点辐角 111.994° 109.022°
升交点赤经 251.103° 258.999°
平近点角 59.351° 216.084°
近地点 1732.192km 1732.524km
远地点 1750.414km 1750.074km
周期 121.353分钟 121.352分钟
每日圈数 11.866255 11.866263
Detailed Information
固有亮度:
5
最大亮度:
7.9
平衡模式:
三轴稳定
覆盖范围:
全球
运营商:
全球星公司
运营商所在国:
美国
使用方式:
暂无
Satellite Introduction
全球星星座由48颗卫星加8颗备份星组成。这些卫星分布在8个倾角为52度的圆形轨道平面上,每个轨道平面6颗卫星,另有1 颗备用星。轨道高度约为1414km,传输时延和处理时延小于300ms,整个系统的覆盖区为南北纬70度以内的地区。该卫星仍在工作。
2D Orbit Map
3D Orbit Map
Orbit Altitude Analysis Chart
Orbit Inclination Analysis Chart
Orbit Comprehensive Analysis Chart
View Comprehensive Chart